{"data":{"norad_id":65894,"epoch":"2026-05-25T01:11:00.620736Z","epoch_age_seconds":73946,"freshness":"FRESH","line1":"1 65894U 25224N   26145.04931274  .00011333  00000+0  39410-3 0  9995","line2":"2 65894  53.1596  16.7777 0001072  75.0051 285.1068 15.30206247 36566","mean_motion":15.30206247,"eccentricity":0.0001072,"inclination_deg":53.1596,"raan_deg":16.7777,"arg_perigee_deg":75.0051,"mean_anomaly_deg":285.1068,"bstar":0.0003941,"rev_number":3656,"period_min":94.10496152549,"perigee_km":474.4617397245,"apogee_km":475.93109440912,"semimajor_km":6853.3334170668,"source":"CELESTRAK","updated_at":"2026-05-25T13:38:20.981414Z"}}